Satellite-Ground Cal/Val Site Overpasses Predictions

Prediction of Satellite NPP Overpassing Cal/Val Site: Antarctic Dome C

Ground Cal/Val Site Location: Latitude: -75.10, Longitude: 123.35; Satellite-Ground Site NADIR distance within 100 km.

Table of predicted overpasses for the next 14.0 days since TLE Epoch: 6/13/2014
Interval Starting Time Ending Time Minimum Distance Time Minimum Distance (km)
1 06/14/2014 15:01:30 06/14/2014 15:01:58 06/14/2014 15:01:44 30.07
2 06/15/2014 14:42:46 06/15/2014 14:43:05 06/15/2014 14:42:55 77.09
3 06/16/2014 07:44:21 06/16/2014 07:44:49 06/16/2014 07:44:35 31.61
4 06/17/2014 07:25:38 06/17/2014 07:25:56 06/17/2014 07:25:47 78.37
5 06/19/2014 15:07:55 06/19/2014 15:08:16 06/19/2014 15:08:05 67.01
6 06/20/2014 14:49:04 06/20/2014 14:49:31 06/20/2014 14:49:17 42.41
7 06/21/2014 07:50:46 06/21/2014 07:51:08 06/21/2014 07:50:57 66.52
8 06/22/2014 07:31:55 06/22/2014 07:32:22 06/22/2014 07:32:09 41.42


NCC Satellite Cal/Val Overpasses Prediction Service
